Location: Rio Negrinho
(26.2394°S, 49.4999°W)
Time: 11:26:21
(UTC+00:00)

Hubble Space Telescope - Pass Details

Date: 29 July 2021
Orbit: 535 x 539 km, 28.5° (Epoch: 15 September)

Event Time Altitude Azimuth Distance (km) Brightness Sun altitude
Exits shadow 07:45:37 29° 71° (ENE) 992 2.6 -29.8°
Drops below altitude 10° 07:48:02 10° 93° (E) 1,794 4.3 -29.3°
Sets 07:50:22 0° 99° (E) 2,688 5.4 -28.7°
